Home > Time Zones > World Clock > Weather > Spain > Jaén > Past weeks

Flag for Spain Weather past 2 weeks in Jaén, Spain

Now
70 °F

Sunny.


Feels Like: 70 °F
Forecast: 42 / 77 °F
Wind: 6 mph from North

Location: Granada / Aeropuerto

Current Time: Apr 19, 2015 at 3:12:38 PM

Latest Report: Apr 19, 2015 at 2:30 PM


Visibility: 10 mi

Pressure: 30.01 "Hg

Humidity: 35%

Dew point: 41 °F

Location of JaénLocation

Historic Weather in Jaén — Graph

°F

Jaén temperature yesterday

Maximum temperature yesterday: 73 °F (at 3:00 PM)
Minimum temperature yesterday: 46 °F (at 7:00 AM)
Average temperature yesterday: 63 °F

Past Weeks' High & Low Weather Summary

 TemperatureHumidityPressure
High84 °F (Apr 14, 4:30 PM)100% (Apr 5, 8:30 AM)30.24 "Hg (Apr 5, 8:30 AM)
Low41 °F (Apr 12, 7:30 AM)14% (Apr 14, 4:30 PM)29.77 "Hg (Apr 5, 4:30 PM)
Average62 °F61%30.07 "Hg
* Reported Apr 4 2:00 PM — Apr 19 2:00 PM, Jaén, Weather by CustomWeather, © 2015

Note: Actual official high and low records may vary slightly from our data, if they occured in-between our weather recording intervals... More about our weather records

Advertising

Jaén weather history for previous 24 hours

 ConditionsComfort  
Time TempWeatherWind HumidityBarometerVisibility
2:00 PM
Sun, Apr 19
68 °FSunny.5 mph40%30.01 "Hg10 mi
1:30 PM66 °FSunny.2 mph43%30.01 "Hg10 mi
1:00 PM66 °FSunny.2 mph43%30.04 "Hg10 mi
12:30 PM64 °FSunny.1 mph43%30.04 "Hg10 mi
12:00 PM64 °FSunny.1 mph46%30.04 "Hg10 mi
11:30 AM63 °FSunny.1 mph52%30.07 "Hg10 mi
11:00 AM59 °FSunny.1 mph63%30.07 "Hg10 mi
10:30 AM57 °FSunny.No wind67%30.07 "Hg10 mi
10:00 AM54 °FSunny.No wind82%30.04 "Hg10 mi
9:30 AM52 °FSunny.No wind82%30.04 "Hg10 mi
9:00 AM50 °FSunny.No wind88%30.04 "Hg10 mi
8:30 AM46 °FClear.No wind93%30.04 "Hg10 mi
8:00 AM45 °FClear.No wind93%30.04 "Hg10 mi
7:30 AM45 °FClear.No wind100%30.04 "Hg10 mi
7:00 AM45 °FPassing clouds.1 mph93%30.04 "HgN/A
6:30 AM46 °FPassing clouds.1 mph93%30.04 "HgN/A
11:00 PM
Sat, Apr 18
59 °FPassing clouds.6 mph55%30.04 "HgN/A
10:30 PM59 °FPassing clouds.6 mph59%30.01 "HgN/A
10:00 PM59 °FPassing clouds.7 mph59%30.01 "HgN/A
9:30 PM59 °FPassing clouds.7 mph59%30.01 "HgN/A
9:00 PM63 °FPassing clouds.8 mph52%29.98 "HgN/A
8:30 PM66 °FPassing clouds.10 mph46%29.98 "HgN/A
8:00 PM68 °FPassing clouds.9 mph43%29.98 "HgN/A
7:30 PM68 °FPassing clouds.12 mph46%29.95 "HgN/A
7:00 PM70 °FPassing clouds.14 mph43%29.95 "HgN/A
6:30 PM70 °FPassing clouds.14 mph46%29.95 "HgN/A
6:00 PM72 °FPassing clouds.14 mph44%29.95 "HgN/A
5:30 PM73 °FPassing clouds.13 mph44%29.95 "HgN/A
5:00 PM72 °FPassing clouds.14 mph44%29.95 "HgN/A
4:30 PM73 °FPassing clouds.10 mph36%29.95 "HgN/A
4:00 PM73 °FPassing clouds.8 mph38%29.98 "HgN/A
3:30 PM73 °FPassing clouds.10 mph41%29.98 "HgN/A
3:00 PM73 °FPassing clouds.3 mph36%29.98 "HgN/A
Weather by CustomWeather, © 2015

See weather overviewHow to use our weather pages